TimeEST,TemperatureF,Dew PointF,Humidity,Sea Level PressureIn,VisibilityMPH,Wind Direction,Wind SpeedMPH,Gust SpeedMPH,PrecipitationIn,Events,Conditions,WindDirDegrees,DateUTC
12:56 AM,37.9,28.0,68,29.92,10.0,Variable,3.5,-,N/A,,Mostly Cloudy,0,2012-11-07 05:56:00
1:56 AM,39.0,28.9,67,29.92,10.0,NW,4.6,-,N/A,,Overcast,310,2012-11-07 06:56:00
2:56 AM,39.0,28.9,67,29.91,10.0,NW,5.8,-,N/A,,Overcast,320,2012-11-07 07:56:00
3:56 AM,37.9,28.9,70,29.89,10.0,NW,3.5,-,N/A,,Mostly Cloudy,310,2012-11-07 08:56:00
4:56 AM,37.9,28.9,70,29.90,10.0,NW,5.8,-,N/A,,Overcast,310,2012-11-07 09:56:00
5:56 AM,39.0,28.9,67,29.89,10.0,Variable,4.6,-,N/A,,Overcast,0,2012-11-07 10:56:00
6:56 AM,39.0,28.9,67,29.91,10.0,NW,4.6,-,N/A,,Overcast,320,2012-11-07 11:56:00
7:56 AM,39.9,30.0,68,29.91,10.0,Variable,3.5,-,N/A,,Overcast,0,2012-11-07 12:56:00
8:56 AM,41.0,30.0,65,29.92,10.0,Variable,4.6,-,N/A,,Overcast,0,2012-11-07 13:56:00
9:56 AM,44.1,30.9,60,29.92,10.0,Variable,4.6,-,N/A,,Clear,0,2012-11-07 14:56:00
10:56 AM,48.0,30.9,52,29.91,10.0,NNE,5.8,19.6,N/A,,Scattered Clouds,20,2012-11-07 15:56:00
11:56 AM,48.9,30.9,50,29.88,10.0,Calm,Calm,-,N/A,,Clear,0,2012-11-07 16:56:00
12:56 PM,52.0,30.0,43,29.85,10.0,NNW,5.8,-,N/A,,Clear,330,2012-11-07 17:56:00
1:56 PM,53.1,30.0,41,29.84,10.0,Variable,3.5,-,N/A,,Scattered Clouds,0,2012-11-07 18:56:00
2:56 PM,55.0,32.0,42,29.84,10.0,North,5.8,-,N/A,,Scattered Clouds,10,2012-11-07 19:56:00
3:56 PM,52.0,30.9,45,29.85,10.0,NNW,8.1,-,N/A,,Overcast,330,2012-11-07 20:56:00
4:56 PM,48.9,28.9,46,29.87,10.0,North,3.5,-,N/A,,Overcast,10,2012-11-07 21:56:00
5:56 PM,46.9,28.9,50,29.90,10.0,Variable,4.6,-,N/A,,Overcast,0,2012-11-07 22:56:00
6:56 PM,45.0,30.9,58,29.91,10.0,NNE,5.8,-,N/A,,Overcast,30,2012-11-07 23:56:00
7:56 PM,44.1,33.1,65,29.93,10.0,NNE,4.6,-,N/A,,Overcast,30,2012-11-08 00:56:00
8:56 PM,43.0,33.1,68,29.94,10.0,Calm,Calm,-,N/A,,Overcast,0,2012-11-08 01:56:00
9:56 PM,39.9,33.1,77,29.94,10.0,Calm,Calm,-,N/A,,Clear,0,2012-11-08 02:56:00
10:56 PM,36.0,33.1,89,29.95,10.0,Calm,Calm,-,N/A,,Clear,0,2012-11-08 03:56:00
11:56 PM,35.1,32.0,89,29.96,10.0,Calm,Calm,-,N/A,,Scattered Clouds,0,2012-11-08 04:56:00